Time,TemperatureF,DewpointF,PressureIn,WindDirection,WindDirectionDegrees,WindSpeedMPH,WindSpeedGustMPH,Humidity,HourlyPrecipIn,Conditions,Clouds,dailyrainin,SoftwareType,DateUTC
2013-07-26 00:23:00,55.0,54.0,30.10,West,271,0.0,1.0,97,0.00,,,0.00,,2013-07-26 04:23:00,
2013-07-26 00:32:00,55.0,54.0,30.10,West,273,0.0,1.0,96,0.00,,,0.00,,2013-07-26 04:32:00,
2013-07-26 00:42:00,55.0,54.0,30.10,West,273,0.0,0.0,96,0.00,,,0.00,,2013-07-26 04:42:00,
2013-07-26 00:53:00,54.0,53.0,30.10,West,273,0.0,0.0,96,0.00,,,0.00,,2013-07-26 04:53:00,
2013-07-26 01:02:00,54.0,53.0,30.10,West,273,0.0,0.0,96,0.00,,,0.00,,2013-07-26 05:02:00,
2013-07-26 01:12:00,54.0,53.0,30.11,West,273,0.0,1.0,97,0.00,,,0.00,,2013-07-26 05:12:00,
2013-07-26 01:22:00,54.0,53.0,30.10,West,273,0.0,1.0,97,0.00,,,0.00,,2013-07-26 05:22:00,
2013-07-26 01:43:00,54.0,53.0,30.10,West,273,0.0,1.0,97,0.00,,,0.00,,2013-07-26 05:43:00,
2013-07-26 01:52:00,53.0,52.0,30.10,West,273,0.0,0.0,97,0.00,,,0.00,,2013-07-26 05:52:00,
2013-07-26 02:02:00,53.0,52.0,30.09,West,273,0.0,0.0,97,0.00,,,0.00,,2013-07-26 06:02:00,
2013-07-26 02:12:00,53.0,52.0,30.09,West,273,0.0,0.0,97,0.00,,,0.00,,2013-07-26 06:12:00,
2013-07-26 02:22:00,52.0,51.0,30.09,West,273,0.0,0.0,97,0.00,,,0.00,,2013-07-26 06:22:00,
2013-07-26 02:33:00,52.0,51.0,30.09,West,273,0.0,0.0,97,0.00,,,0.00,,2013-07-26 06:33:00,
2013-07-26 02:43:00,52.0,51.0,30.09,West,273,0.0,0.0,97,0.00,,,0.00,,2013-07-26 06:43:00,
2013-07-26 02:52:00,52.0,51.0,30.09,West,273,0.0,0.0,97,0.00,,,0.00,,2013-07-26 06:52:00,
2013-07-26 03:02:00,52.0,51.0,30.08,West,273,0.0,1.0,97,0.00,,,0.00,,2013-07-26 07:02:00,
2013-07-26 03:22:00,51.0,50.0,30.08,West,272,0.0,0.0,97,0.00,,,0.00,,2013-07-26 07:22:00,
2013-07-26 03:32:00,51.0,50.0,30.07,West,272,0.0,0.0,97,0.00,,,0.00,,2013-07-26 07:32:00,
2013-07-26 03:43:00,51.0,50.0,30.07,West,273,0.0,0.0,98,0.00,,,0.00,,2013-07-26 07:43:00,
2013-07-26 03:53:00,51.0,50.0,30.07,West,273,0.0,1.0,98,0.00,,,0.00,,2013-07-26 07:53:00,
2013-07-26 04:02:00,51.0,50.0,30.07,West,273,0.0,1.0,98,0.00,,,0.00,,2013-07-26 08:02:00,
2013-07-26 04:22:00,50.0,49.0,30.08,West,273,0.0,0.0,97,0.00,,,0.00,,2013-07-26 08:22:00,
2013-07-26 04:32:00,50.0,49.0,30.08,West,273,0.0,0.0,98,0.00,,,0.00,,2013-07-26 08:32:00,
2013-07-26 04:44:00,51.0,50.0,30.08,SE,136,1.0,1.0,98,0.00,,,0.00,,2013-07-26 08:44:00,
2013-07-26 04:52:00,50.0,49.0,30.07,SE,136,0.0,0.0,98,0.00,,,0.00,,2013-07-26 08:52:00,
2013-07-26 05:02:00,51.0,50.0,30.07,SE,136,0.0,1.0,98,0.00,,,0.00,,2013-07-26 09:02:00,
2013-07-26 05:12:00,50.0,49.0,30.07,SE,136,0.0,0.0,98,0.00,,,0.00,,2013-07-26 09:12:00,
2013-07-26 05:22:00,50.0,49.0,30.07,SE,136,0.0,0.0,98,0.00,,,0.00,,2013-07-26 09:22:00,
2013-07-26 05:32:00,51.0,50.0,30.07,WSW,246,0.0,1.0,98,0.00,,,0.00,,2013-07-26 09:32:00,
2013-07-26 05:43:00,53.0,52.0,30.07,WSW,244,1.0,2.0,98,0.00,,,0.00,,2013-07-26 09:43:00,
2013-07-26 05:52:00,53.0,52.0,30.07,SW,233,0.0,2.0,98,0.00,,,0.00,,2013-07-26 09:52:00,
2013-07-26 06:02:00,52.0,51.0,30.07,NW,316,0.0,1.0,98,0.00,,,0.00,,2013-07-26 10:02:00,
2013-07-26 06:12:00,52.0,51.0,30.07,NW,316,0.0,0.0,98,0.00,,,0.00,,2013-07-26 10:12:00,
2013-07-26 06:33:00,51.0,50.0,30.08,NW,316,0.0,0.0,98,0.00,,,0.00,,2013-07-26 10:33:00,
2013-07-26 06:42:00,51.0,50.0,30.09,NW,316,0.0,0.0,98,0.00,,,0.00,,2013-07-26 10:42:00,
2013-07-26 06:52:00,52.0,51.0,30.09,NW,316,0.0,0.0,98,0.00,,,0.00,,2013-07-26 10:52:00,
2013-07-26 07:12:00,52.0,51.0,30.09,NW,312,0.0,1.0,98,0.00,,,0.00,,2013-07-26 11:12:00,
2013-07-26 07:22:00,54.0,53.0,30.09,West,264,0.0,1.0,98,0.00,,,0.00,,2013-07-26 11:22:00,
2013-07-26 07:32:00,54.0,53.0,30.09,West,274,1.0,2.0,98,0.00,,,0.00,,2013-07-26 11:32:00,
2013-07-26 07:43:00,55.0,54.0,30.09,WSW,257,2.0,4.0,97,0.00,,,0.00,,2013-07-26 11:43:00,
2013-07-26 07:52:00,57.0,55.0,30.09,WSW,252,0.0,4.0,94,0.00,,,0.00,,2013-07-26 11:52:00,
2013-07-26 08:02:00,57.0,55.0,30.10,West,269,1.0,3.0,92,0.00,,,0.00,,2013-07-26 12:02:00,
2013-07-26 08:12:00,58.0,55.0,30.10,WNW,288,1.0,3.0,91,0.00,,,0.00,,2013-07-26 12:12:00,
2013-07-26 08:22:00,59.0,56.0,30.10,WNW,302,1.0,3.0,90,0.00,,,0.00,,2013-07-26 12:22:00,
2013-07-26 08:33:00,60.0,57.0,30.10,WSW,254,1.0,3.0,89,0.00,,,0.00,,2013-07-26 12:33:00,
2013-07-26 08:43:00,61.0,57.0,30.10,WSW,254,1.0,2.0,88,0.00,,,0.00,,2013-07-26 12:43:00,
2013-07-26 08:53:00,62.0,58.0,30.10,West,278,1.0,4.0,87,0.00,,,0.00,,2013-07-26 12:53:00,
2013-07-26 09:02:00,62.0,58.0,30.10,West,278,1.0,4.0,87,0.00,,,0.00,,2013-07-26 13:02:00,
2013-07-26 09:43:00,66.0,60.0,30.10,NW,323,2.0,5.0,82,0.00,,,0.00,,2013-07-26 13:43:00,
2013-07-26 10:02:00,67.0,61.0,30.10,North,350,4.0,8.0,81,0.00,,,0.00,,2013-07-26 14:02:00,
2013-07-26 10:43:00,70.0,61.0,30.10,NNE,33,3.0,6.0,73,0.00,,,0.00,,2013-07-26 14:43:00,
2013-07-26 10:53:00,70.0,61.0,30.10,WNW,294,4.0,6.0,73,0.00,,,0.00,,2013-07-26 14:53:00,
2013-07-26 11:03:00,70.0,60.0,30.09,NNW,333,3.0,6.0,71,0.00,,,0.00,,2013-07-26 15:03:00,
2013-07-26 11:12:00,70.0,60.0,30.09,NNW,337,2.0,5.0,71,0.00,,,0.00,,2013-07-26 15:12:00,
2013-07-26 11:33:00,71.0,60.0,30.09,SW,233,1.0,4.0,69,0.00,,,0.00,,2013-07-26 15:33:00,
2013-07-26 11:43:00,71.0,59.0,30.08,NW,304,3.0,6.0,67,0.00,,,0.00,,2013-07-26 15:43:00,
2013-07-26 11:53:00,71.0,59.0,30.08,NW,304,3.0,6.0,67,0.00,,,0.00,,2013-07-26 15:53:00,
2013-07-26 12:03:00,72.0,57.0,30.08,SSW,207,1.0,6.0,59,0.00,,,0.00,,2013-07-26 16:03:00,
2013-07-26 12:43:00,72.0,59.0,30.08,NW,317,1.0,6.0,63,0.00,,,0.00,,2013-07-26 16:43:00,
2013-07-26 12:54:00,72.0,58.0,30.07,WNW,291,1.0,5.0,62,0.00,,,0.00,,2013-07-26 16:54:00,
2013-07-26 13:22:00,73.0,59.0,30.07,NE,56,3.0,8.0,62,0.00,,,0.00,,2013-07-26 17:22:00,
2013-07-26 13:33:00,73.0,59.0,30.07,NE,56,3.0,8.0,62,0.00,,,0.00,,2013-07-26 17:33:00,
2013-07-26 13:43:00,74.0,60.0,30.06,North,352,3.0,7.0,61,0.00,,,0.00,,2013-07-26 17:43:00,
2013-07-26 13:53:00,74.0,60.0,30.06,West,259,2.0,6.0,61,0.00,,,0.00,,2013-07-26 17:53:00,
2013-07-26 14:12:00,75.0,61.0,30.06,NNE,13,2.0,6.0,61,0.00,,,0.00,,2013-07-26 18:12:00,
2013-07-26 14:23:00,74.0,61.0,30.06,NE,38,3.0,7.0,64,0.00,,,0.00,,2013-07-26 18:23:00,
2013-07-26 14:33:00,74.0,61.0,30.06,West,267,2.0,6.0,63,0.00,,,0.00,,2013-07-26 18:33:00,
2013-07-26 14:44:00,74.0,61.0,30.06,NE,46,3.0,8.0,63,0.00,,,0.00,,2013-07-26 18:44:00,
2013-07-26 14:52:00,74.0,60.0,30.05,NNE,19,1.0,6.0,61,0.00,,,0.00,,2013-07-26 18:52:00,
2013-07-26 15:03:00,74.0,61.0,30.05,NNW,336,3.0,6.0,63,0.00,,,0.00,,2013-07-26 19:03:00,
2013-07-26 15:22:00,75.0,62.0,30.04,NNE,19,4.0,6.0,63,0.00,,,0.00,,2013-07-26 19:22:00,
2013-07-26 15:32:00,75.0,62.0,30.05,North,1,2.0,10.0,63,0.00,,,0.00,,2013-07-26 19:32:00,
2013-07-26 15:43:00,74.0,61.0,30.04,ENE,63,0.0,5.0,64,0.00,,,0.00,,2013-07-26 19:43:00,
2013-07-26 15:52:00,75.0,62.0,30.04,NNE,27,3.0,8.0,63,0.00,,,0.00,,2013-07-26 19:52:00,
2013-07-26 16:12:00,75.0,61.0,30.03,NNE,12,2.0,6.0,62,0.00,,,0.00,,2013-07-26 20:12:00,
2013-07-26 16:22:00,75.0,64.0,30.03,NNW,335,3.0,8.0,68,0.00,,,0.00,,2013-07-26 20:22:00,
2013-07-26 16:32:00,75.0,61.0,30.03,ENE,57,3.0,6.0,62,0.00,,,0.00,,2013-07-26 20:32:00,
2013-07-26 16:43:00,74.0,61.0,30.03,ENE,63,2.0,5.0,64,0.00,,,0.00,,2013-07-26 20:43:00,
2013-07-26 16:53:00,75.0,61.0,30.03,NW,323,2.0,5.0,62,0.00,,,0.00,,2013-07-26 20:53:00,
2013-07-26 17:02:00,75.0,61.0,30.03,NNW,327,2.0,5.0,61,0.00,,,0.00,,2013-07-26 21:02:00,
2013-07-26 17:22:00,75.0,60.0,30.02,NNE,32,1.0,3.0,60,0.00,,,0.00,,2013-07-26 21:22:00,
2013-07-26 17:32:00,75.0,61.0,30.02,NNE,23,1.0,5.0,61,0.00,,,0.00,,2013-07-26 21:32:00,
2013-07-26 17:43:00,75.0,61.0,30.02,NW,319,3.0,6.0,61,0.00,,,0.00,,2013-07-26 21:43:00,
2013-07-26 17:53:00,75.0,61.0,30.02,NE,51,2.0,5.0,62,0.00,,,0.00,,2013-07-26 21:53:00,
2013-07-26 18:22:00,75.0,62.0,30.01,NNE,18,2.0,3.0,65,0.00,,,0.00,,2013-07-26 22:22:00,
2013-07-26 18:33:00,75.0,60.0,30.01,ENE,60,4.0,5.0,60,0.00,,,0.00,,2013-07-26 22:33:00,
2013-07-26 18:43:00,74.0,62.0,30.01,NE,41,2.0,6.0,66,0.00,,,0.00,,2013-07-26 22:43:00,
2013-07-26 18:53:00,74.0,59.0,30.01,NNW,348,1.0,4.0,60,0.00,,,0.00,,2013-07-26 22:53:00,
2013-07-26 19:22:00,73.0,59.0,30.01,NE,56,2.0,4.0,62,0.00,,,0.00,,2013-07-26 23:22:00,
2013-07-26 19:32:00,72.0,60.0,30.01,ENE,60,2.0,3.0,66,0.00,,,0.00,,2013-07-26 23:32:00,
2013-07-26 19:43:00,72.0,60.0,30.01,ENE,64,1.0,3.0,66,0.00,,,0.00,,2013-07-26 23:43:00,
2013-07-26 19:53:00,71.0,60.0,30.01,ENE,60,1.0,3.0,68,0.00,,,0.00,,2013-07-26 23:53:00,
2013-07-26 20:02:00,70.0,60.0,30.01,ENE,60,0.0,1.0,71,0.00,,,0.00,,2013-07-27 00:02:00,
2013-07-26 20:22:00,69.0,60.0,30.01,ENE,62,1.0,3.0,73,0.00,,,0.00,,2013-07-27 00:22:00,
2013-07-26 20:32:00,67.0,59.0,30.01,ENE,62,0.0,2.0,76,0.00,,,0.00,,2013-07-27 00:32:00,
2013-07-26 20:43:00,66.0,59.0,30.01,ENE,62,0.0,0.0,79,0.00,,,0.00,,2013-07-27 00:43:00,
2013-07-26 20:53:00,66.0,59.0,30.01,ENE,62,0.0,0.0,79,0.00,,,0.00,,2013-07-27 00:53:00,
2013-07-26 22:02:00,61.0,58.0,30.01,ENE,62,0.0,0.0,91,0.00,,,0.00,,2013-07-27 02:02:00,
2013-07-26 22:12:00,60.0,58.0,30.01,ENE,62,0.0,0.0,92,0.00,,,0.00,,2013-07-27 02:12:00,
2013-07-26 22:22:00,59.0,57.0,30.01,ENE,62,0.0,0.0,92,0.00,,,0.00,,2013-07-27 02:22:00,
2013-07-26 22:32:00,58.0,56.0,30.01,ENE,63,0.0,1.0,93,0.00,,,0.00,,2013-07-27 02:32:00,
2013-07-26 22:43:00,58.0,56.0,30.01,ENE,63,0.0,0.0,93,0.00,,,0.00,,2013-07-27 02:43:00,
2013-07-26 22:53:00,58.0,56.0,30.01,ENE,63,0.0,0.0,93,0.00,,,0.00,,2013-07-27 02:53:00,
2013-07-26 23:03:00,58.0,56.0,30.01,ENE,63,0.0,0.0,94,0.00,,,0.00,,2013-07-27 03:03:00,
2013-07-26 23:12:00,57.0,55.0,30.01,ENE,63,0.0,0.0,94,0.00,,,0.00,,2013-07-27 03:12:00,
2013-07-26 23:44:00,56.0,55.0,30.01,ENE,63,0.0,0.0,95,0.00,,,0.00,,2013-07-27 03:44:00,
2013-07-26 23:52:00,56.0,55.0,30.01,ENE,63,0.0,1.0,95,0.00,,,0.00,,2013-07-27 03:52:00,